Buoy 41613

sailwx.info

Track history (hours):
 
Tides and Currents Weather Stations Pressure Air Temp Water Temp Dewpoint Dewpoint Depression Visibility Wind Speed Wind Dir Waves Ship Positions

Drifting buoy 41613

Last reported at 2014-Oct-31 01:00 UTC. Time now 2014-Oct-31 12:21 UTC.
Position N 24°46' W 071°60'.

Water temperature 28.1 ° C

Date/timePositionNaut miles runAvg speedWind from/ knotsBaromVisibWave heightAir tempDewpointWater temp
2014-Oct-31 01:00N 24°46' W 071°60'1 0.7 28.1
2014-Oct-30 23:00N 24°47' W 071°58'7 1.4 28.1
2014-Oct-30 18:00N 24°53' W 071°54'4 0.6 28.5
2014-Oct-30 11:00N 24°57' W 071°52'27 9.1 28.1
2014-Oct-30 08:00N 25°05' W 071°23'0 0.0 28.1
2014-Oct-29 22:00N 25°05' W 071°23'0 0.0 28.2
2014-Oct-29 14:00N 25°05' W 071°23'0 0.0 28.1
2014-Oct-29 07:00N 25°05' W 071°23'0 0.0 28.1
2014-Oct-28 21:00N 25°05' W 071°23'5 0.7 28.3
2014-Oct-28 14:00N 25°02' W 071°19'0 0.0 28.2
2014-Oct-28 02:00N 25°02' W 071°19'33 1.4 28.3
2014-Oct-27 02:00N 24°36' W 071°40'0 0.0 28.3
2014-Oct-26 23:00N 24°36' W 071°40'0 0.0 28.3
2014-Oct-26 22:00N 24°36' W 071°40'0 0.0 28.3
2014-Oct-26 20:00N 24°36' W 071°40'0 0.0 28.3
2014-Oct-26 19:00N 24°36' W 071°40'0 0.0 28.4
2014-Oct-26 17:00N 24°36' W 071°40'0 0.0 28.4
2014-Oct-26 15:00N 24°36' W 071°40'0 0.0 28.3
2014-Oct-26 13:00N 24°36' W 071°40'0 0.0 28.3
2014-Oct-26 07:00N 24°36' W 071°40'0 0.0 28.4
2014-Oct-25 20:00N 24°36' W 071°40'0 0.0 28.5
2014-Oct-25 17:00N 24°36' W 071°40'0 0.0 28.5
2014-Oct-25 15:00N 24°36' W 071°40'0 0.0 28.6
2014-Oct-25 11:00N 24°36' W 071°40'0 0.3 28.5
2014-Oct-25 10:00N 24°36' W 071°41'0 0.0 28.5
2014-Oct-25 09:00N 24°36' W 071°41'13 3.3 28.5
2014-Oct-25 05:00N 24°40' W 071°54'0 0.0 28.6
2014-Oct-25 01:00N 24°40' W 071°54'0 0.0 28.6
2014-Oct-24 21:00N 24°40' W 071°54'0 0.0 28.5
2014-Oct-24 19:00N 24°40' W 071°54'0 0.0 28.5
2014-Oct-24 14:00N 24°40' W 071°54'13 3.4 28.6
2014-Oct-24 10:00N 24°52' W 072°02'0 0.0 28.6
2014-Oct-24 09:00N 24°52' W 072°02'0 0.0 28.6
2014-Oct-24 08:00N 24°52' W 072°02'0 0.0 28.6
2014-Oct-23 22:00N 24°52' W 072°02'0 0.0 28.6
2014-Oct-23 18:00N 24°52' W 072°02'3 0.8 28.7
2014-Oct-23 14:00N 24°55' W 072°03'0 0.0 28.6
2014-Oct-23 11:00N 24°55' W 072°03'0 0.0 28.6
2014-Oct-23 10:00N 24°55' W 072°03'19 2.4 28.6
2014-Oct-23 02:00N 25°14' W 072°03'0 0.0 28.6
2014-Oct-22 23:00N 25°14' W 072°03'0 0.0 28.7
2014-Oct-22 08:00N 25°14' W 072°03'0 0.0 28.6
2014-Oct-22 02:00N 25°14' W 072°03'0 0.0 28.8
2014-Oct-22 00:00N 25°14' W 072°03'5 0.8 28.8
2014-Oct-21 18:00N 25°18' W 072°01'0 0.0 29.0
2014-Oct-21 09:00N 25°18' W 072°01'8 1.1 28.6
2014-Oct-21 01:00N 25°25' W 071°54'   28.7
Track history (hours):
 
Tides and Currents Weather Stations Pressure Air Temp Water Temp Dewpoint Dewpoint Depression Visibility Wind Speed Wind Dir Waves Ship Positions

Drifting buoy 41613

Last reported at 2014-Oct-31 01:00 UTC. Time now 2014-Oct-31 12:21 UTC.
Position N 24°46' W 071°60'.

Water temperature 28.1 ° C

Date/timePositionNaut miles runAvg speedWind from/ knotsBaromVisibWave heightAir tempDewpointWater temp
2014-Oct-31 01:00N 24°46' W 071°60'1 0.7 28.1
2014-Oct-30 23:00N 24°47' W 071°58'7 1.4 28.1
2014-Oct-30 18:00N 24°53' W 071°54'4 0.6 28.5
2014-Oct-30 11:00N 24°57' W 071°52'27 9.1 28.1
2014-Oct-30 08:00N 25°05' W 071°23'0 0.0 28.1
2014-Oct-29 22:00N 25°05' W 071°23'0 0.0 28.2
2014-Oct-29 14:00N 25°05' W 071°23'0 0.0 28.1
2014-Oct-29 07:00N 25°05' W 071°23'0 0.0 28.1
2014-Oct-28 21:00N 25°05' W 071°23'5 0.7 28.3
2014-Oct-28 14:00N 25°02' W 071°19'0 0.0 28.2
2014-Oct-28 02:00N 25°02' W 071°19'33 1.4 28.3
2014-Oct-27 02:00N 24°36' W 071°40'0 0.0 28.3
2014-Oct-26 23:00N 24°36' W 071°40'0 0.0 28.3
2014-Oct-26 22:00N 24°36' W 071°40'0 0.0 28.3
2014-Oct-26 20:00N 24°36' W 071°40'0 0.0 28.3
2014-Oct-26 19:00N 24°36' W 071°40'0 0.0 28.4
2014-Oct-26 17:00N 24°36' W 071°40'0 0.0 28.4
2014-Oct-26 15:00N 24°36' W 071°40'0 0.0 28.3
2014-Oct-26 13:00N 24°36' W 071°40'0 0.0 28.3
2014-Oct-26 07:00N 24°36' W 071°40'0 0.0 28.4
2014-Oct-25 20:00N 24°36' W 071°40'0 0.0 28.5
2014-Oct-25 17:00N 24°36' W 071°40'0 0.0 28.5
2014-Oct-25 15:00N 24°36' W 071°40'0 0.0 28.6
2014-Oct-25 11:00N 24°36' W 071°40'0 0.3 28.5
2014-Oct-25 10:00N 24°36' W 071°41'0 0.0 28.5
2014-Oct-25 09:00N 24°36' W 071°41'13 3.3 28.5
2014-Oct-25 05:00N 24°40' W 071°54'0 0.0 28.6
2014-Oct-25 01:00N 24°40' W 071°54'0 0.0 28.6
2014-Oct-24 21:00N 24°40' W 071°54'0 0.0 28.5
2014-Oct-24 19:00N 24°40' W 071°54'0 0.0 28.5
2014-Oct-24 14:00N 24°40' W 071°54'13 3.4 28.6
2014-Oct-24 10:00N 24°52' W 072°02'0 0.0 28.6
2014-Oct-24 09:00N 24°52' W 072°02'0 0.0 28.6
2014-Oct-24 08:00N 24°52' W 072°02'0 0.0 28.6
2014-Oct-23 22:00N 24°52' W 072°02'0 0.0 28.6
2014-Oct-23 18:00N 24°52' W 072°02'3 0.8 28.7
2014-Oct-23 14:00N 24°55' W 072°03'0 0.0 28.6
2014-Oct-23 11:00N 24°55' W 072°03'0 0.0 28.6
2014-Oct-23 10:00N 24°55' W 072°03'19 2.4 28.6
2014-Oct-23 02:00N 25°14' W 072°03'0 0.0 28.6
2014-Oct-22 23:00N 25°14' W 072°03'0 0.0 28.7
2014-Oct-22 08:00N 25°14' W 072°03'0 0.0 28.6
2014-Oct-22 02:00N 25°14' W 072°03'0 0.0 28.8
2014-Oct-22 00:00N 25°14' W 072°03'5 0.8 28.8
2014-Oct-21 18:00N 25°18' W 072°01'0 0.0 29.0
2014-Oct-21 09:00N 25°18' W 072°01'8 1.1 28.6
2014-Oct-21 01:00N 25°25' W 071°54'   28.7

Dump ship's entire track history